Location: Blackwall
(51.5097°N, 0.0016°W)
Time: 23:31:09
(UTC+00:00)

Cosmos 1092 Rocket - Pass Details

Date: 15 May 2026
Orbit: 954 x 994 km, 83.0° (Epoch: 11 June)

Event Time Altitude Azimuth Distance (km) Brightness Sun altitude
Rises 21:32:32 0° 352° (N) 3,649 8.2 -12.8°
Reaches altitude 10° 21:35:09 10° 359° (N) 2,702 7.2 -13.0°
Maximum altitude 21:41:05 47° 72° (ENE) 1,264 4.5 -13.5°
Enters shadow 21:45:20 19° 138° (SE) 2,132 5.2 -13.9°
